Location: Peterborough
(44.3091°N, 78.3197°W)
Time: 18:18:10
(UTC-04:00)

A-11 Canister half - Pass Details

Date: 31 March 2023
Orbit: 1526 x 1682 km, 47.3° (Epoch: 05 June)

Event Time Altitude Azimuth Distance (km) Brightness Sun altitude
Rises 22:37:14 0° 294° (WNW) 4,862 12.7 -29.5°
Reaches altitude 10° 22:40:41 10° 287° (WNW) 3,851 11.8 -30.0°
Maximum altitude 22:49:17 37° 225° (SW) 2,292 9.8 -31.1°
Enters shadow 22:51:22 33° 200° (SSW) 2,398 9.7 -31.3°
